Weather in Rhyl

United Kingdom     53°19′05″N   3°29′32″W
temp.,
°C
wind,
m/s
gust,
m/s
humid.,
%
clouds,
%
prec.,
mm/h
press.,
hPa
HPBL,
m
16 may, sun
sun1601:00+5s369710 1.8 997123
04:00+5s349774 0.0 99671
07:00+6s2496100 0.0 996107
10:00+12s336634 0.1 996996
13:00+10ssw238198 0.5 996532
16:00+11n2387100 0.8 995340
19:00+10nnw249165 1.4 996378
22:00+7wnw229639 0.1 99925
17 may, mon
mon1701:00+5wsw22975 0.1 100037
04:00+5wsw22989 0.0 100257
07:00+7wsw279829 0.0 1003206
10:00+10nw578772 0.3 1005735
13:00+11wnw577316 0.8 1007957
16:00+12nw565544 0.0 10071095
19:00+11nw366183 0.0 1008692
22:00+6sw229352 0.0 100923
18 may, tue
tue1801:00+5ssw2393100 0.0 101047
04:00+4ssw23975 0.0 101052
07:00+7wsw25888 0.0 1011166
10:00+11wnw45669 0.1 10111206
13:00+13nw465633 0.6 10121683
16:00+13nw455218 0.3 10121570
19:00+12nw34625 0.4 1013986
22:00+6ssw229574 0.0 101436
19 may, wed
wed1901:00+5ssw33979 0.0 101462
04:00+4sw339765 0.0 101468
07:00+7wsw25915 0.0 1016206
10:00+10wnw577950 0.4 1017916
13:00+13nw56535 0.6 10181688
16:00+13wnw56515 0.0 10191470
19:00+12wnw46636 0.0 10201063
22:00+6ssw229649 0.0 102241
20 may, thu
thu2001:00+8wnw2389100 0.0 1023143
04:00+7w118097 0.0 102342
07:00+8sw1175100 0.0 1023184
10:00+13w1366100 0.1 10221177
13:00+12sw4560100 0.1 10211198
16:00+11sw41069100 0.0 10201112
19:00+11s51270100 0.0 1016910
22:00+9s31093100 0.7 1014719